Tracking 27122 objects as of 25-Mar-2023
HD Live streaming from Space Station
objects crossing your sky now

SATCOM 2R

Track SATCOM 2R now!
SATCOM 2R is classified as:


NORAD ID: 14328
Int'l Code: 1983-094A
Perigee: 35,959.8 km
Apogee: 36,116.4 km
Inclination: 14.9 °
Period: 1,448.6 minutes
Semi major axis: 42409 km
RCS: 4.023 m2 (large)
Launch date: September 8, 1983
Source: United States (US)
Launch site: AIR FORCE EASTERN TEST RANGE (AFETR)
Your satellite tracking list
Your tracking list is empty




NASA's NSSDC Master Catalog

Two Line Element Set (TLE):
1 14328U 83094A   23083.37403617  .00000019  00000-0  00000-0 0  9999
2 14328  14.9193 354.8611 0018457  51.8523 155.8880  0.99406397143813
Source of the keplerian elements: AFSPC